[TLELIST] Archives

 

[list_settings.list_name] Current TLEs

May 30th 2012 PST

HST 1 20580U 90037B 12150.12705611 .00001696 00000-0 11220-3 0 77 2 20580 028.4710 268.2752 0003169 210.6462 149.3849 15.02512890 11868 ISS (ZARYA) 1 25544U 98067A 12151.35580071 .00007543 00000-0 11304-3 0 6560 2 25544 051.6379 211.5641 0010206 009.9249 089.8400 15.56004977775232 CXO 1 25867U 99040B 12153.07025431 -.00000854 00000-0 00000+0 0 7483 2 25867 072.3779 005.8844 8754333 278.1214 359.6766 00.37805715 9098 ____________________________________________________________________ These 2-Line ...Continue Reading

[list_settings.list_name] Current TLEs

May 29th 2012 PST

HST 1 20580U 90037B 12150.12705611 .00001696 00000-0 11220-3 0 77 2 20580 028.4710 268.2752 0003169 210.6462 149.3849 15.02512890 11868 ISS (ZARYA) 1 25544U 98067A 12150.39347823 .00002801 00000-0 46454-4 0 6500 2 25544 051.6377 216.3774 0010561 004.9225 100.7168 15.55983709775088 CXO 1 25867U 99040B 12153.07025431 -.00000854 00000-0 00000+0 0 7483 2 25867 072.3779 005.8844 8754333 278.1214 359.6766 00.37805715 9098 ____________________________________________________________________ These 2-Line ...Continue Reading

[list_settings.list_name] Current TLEs

May 28th 2012 PST

HST 1 20580U 90037B 12148.20075418 .00002072 00000-0 13983-3 0 64 2 20580 028.4712 280.8871 0003245 187.5471 172.5187 15.02508828 11576 ISS (ZARYA) 1 25544U 98067A 12149.44315972 .00007011 00000-0 10570-3 0 6422 2 25544 051.6389 221.1275 0010025 002.5672 176.2980 15.55972504774930 CXO 1 25867U 99040B 12150.43033339 -.00000578 00000-0 00000+0 0 7478 2 25867 072.3518 006.0775 8751461 278.1254 000.3203 00.37803228 9080 ____________________________________________________________________ These 2-Line ...Continue Reading

[list_settings.list_name] Current TLEs

May 27th 2012 PST

HST 1 20580U 90037B 12148.20075418 .00002072 00000-0 13983-3 0 64 2 20580 028.4712 280.8871 0003245 187.5471 172.5187 15.02508828 11576 ISS (ZARYA) 1 25544U 98067A 12148.40131193 .00007552 00000-0 11337-3 0 6352 2 25544 051.6385 226.3374 0010214 358.1664 100.9346 15.55956655774775 CXO 1 25867U 99040B 12150.43033339 -.00000578 00000-0 00000+0 0 7478 2 25867 072.3518 006.0775 8751461 278.1254 000.3203 00.37803228 9080 ____________________________________________________________________ These 2-Line ...Continue Reading

[list_settings.list_name] Current TLEs

May 26th 2012 PST

HST 1 20580U 90037B 12144.54739081 .00001922 00000-0 12890-3 0 58 2 20580 028.4715 304.7878 0003385 151.1221 208.9547 15.02494582 11022 ISS (ZARYA) 1 25544U 98067A 12147.45284722 .00018259 00000-0 26401-3 0 6289 2 25544 051.6369 231.0767 0010388 354.2968 188.5166 15.55927440774628 CXO 1 25867U 99040B 12147.78083915 -.00000490 00000-0 00000+0 0 7469 2 25867 072.3214 006.2629 8751832 278.1415 359.5924 00.37800960 9072 ____________________________________________________________________ These 2-Line ...Continue Reading

[list_settings.list_name] Current TLEs

May 25th 2012 PST

HST 1 20580U 90037B 12144.54739081 .00001922 00000-0 12890-3 0 58 2 20580 028.4715 304.7878 0003385 151.1221 208.9547 15.02494582 11022 ISS (ZARYA) 1 25544U 98067A 12146.08237655 .00018542 00000-0 26305-3 0 6222 2 25544 051.6413 237.9310 0010868 357.8450 061.6602 15.56427442774416 CXO 1 25867U 99040B 12147.78083915 -.00000490 00000-0 00000+0 0 7469 2 25867 072.3214 006.2629 8751832 278.1415 359.5924 00.37800960 9072 ____________________________________________________________________ These 2-Line ...Continue Reading

[list_settings.list_name] Current TLEs

May 24th 2012 PST

HST 1 20580U 90037B 12143.81672536 .00002000 00000-0 13466-3 0 45 2 20580 028.4714 309.5688 0003363 143.9013 216.2393 15.02492313 10915 ISS (ZARYA) 1 25544U 98067A 12145.42971458 .00017710 00000-0 24491-3 0 6179 2 25544 051.6395 241.1989 0011053 354.8176 005.3221 15.56399610178407 CXO 1 25867U 99040B 12145.13623373 -.00000598 +00000-0 +00000-0 0 00018 2 25867 072.2885 006.5018 8752984 278.1307 359.5434 00.37800609014598 ____________________________________________________________________ These 2-Line ...Continue Reading

[list_settings.list_name] Current TLEs

May 23rd 2012 PST

HST 1 20580U 90037B 12143.81672536 .00002000 00000-0 13466-3 0 45 2 20580 028.4714 309.5688 0003363 143.9013 216.2393 15.02492313 10915 ISS (ZARYA) 1 25544U 98067A 12144.41796600 .00016512 00000-0 23566-3 0 6105 2 25544 051.6407 246.2549 0011069 351.6050 095.9582 15.56357728774155 CXO 1 25867U 99040B 12145.13525587 -.00000598 00000-0 00000+0 0 7450 2 25867 072.2884 006.5022 8752975 278.1307 359.4101 00.37800595 9062 ____________________________________________________________________ These 2-Line ...Continue Reading

[list_settings.list_name] Current TLEs

May 22nd 2012 PST

HST 1 20580U 90037B 12140.96042586 .00001744 00000-0 11581-3 0 33 2 20580 028.4715 328.2630 0003473 117.6101 242.4841 15.02479348 10483 ISS (ZARYA) 1 25544U 98067A 12143.39499596 .00016013 00000-0 22908-3 0 6043 2 25544 051.6404 251.3715 0010918 347.8863 124.3428 15.56320968773998 CXO 1 25867U 99040B 12145.13525587 -.00000598 00000-0 00000+0 0 7450 2 25867 072.2884 006.5022 8752975 278.1307 359.4101 00.37800595 9062 ____________________________________________________________________ These 2-Line ...Continue Reading

[list_settings.list_name] Current TLEs

May 21st 2012 PST

HST 1 20580U 90037B 12140.96042586 .00001744 00000-0 11581-3 0 33 2 20580 028.4715 328.2630 0003473 117.6101 242.4841 15.02479348 10483 ISS (ZARYA) 1 25544U 98067A 12142.49273288 .00015884 00000-0 22755-3 0 5988 2 25544 051.6410 255.8865 0010971 344.4928 109.2642 15.56291046773853 CXO 1 25867U 99040B 12145.13525655 -.00000598 00000-0 00000+0 0 7445 2 25867 072.2933 006.5021 8753187 278.1317 359.4100 00.37790474 9066 ____________________________________________________________________ These 2-Line ...Continue Reading
  • This mailing list is a public mailing list - anyone may join or leave, at any time.
  • This mailing list is announce-only.

International Space Station (ISS) / Hubble Space Telescope (HST) / Chandra X-Ray Observatory Orbital Data via EMAIL

Privacy Policy:

Private list